Regional Weather Roundup
Issued by NWS

Home | Current Version | Previous Version | Text Only | Print | Product List | Glossary Off
Versions: 1 2 3 4 5 6 7 8 9 10 11 12 13 14 15 16 17 18 19 20 21 22 23 24 25 26 27 28 29 30 31 32 33 34 35 36 37 38 39 40 41 42 43 44 45 46 47 48 49 50

000
ASUS43 KMPX 251210
RWRMN
WEATHER ROUNDUP FOR MINNESOTA
NATIONAL WEATHER SERVICE TWIN CITIES/CHANHASSEN MN
700 AM CDT SAT OCT 25 2014


NOTE: "FAIR" INDICATES FEW OR NO CLOUDS BELOW 12,000 FEET WITH NO
SIGNIFICANT WEATHER AND/OR OBSTRUCTIONS TO VISIBILITY. N/A MEANS
CURRENT SKY AND/OR WEATHER CONDITIONS ARE NOT AVAILABLE.

MNZ060>063-068>070-251300-
   Twin Cities Metro

CITY           SKY/WX    TMP DP  RH WIND       PRES   REMARKS
TWIN CITIES    PTCLDY    51  35  54 NW9       29.99R
6HR MIN TEMP:  51; 6HR MAX TEMP:  60;

ST PAUL        CLEAR     51  35  54 NW8       29.99R
CRYSTAL        CLEAR     52  35  52 NW10      29.98R
BLAINE         CLEAR     52  36  54 W9        29.98S
LAKEVILLE      CLEAR     50  36  57 W6          N/A
EDEN PRAIRIE   PTCLDY    54  35  48 NW8       29.99R
6HR MIN TEMP:  54; 6HR MAX TEMP:  61;

SOUTH ST PAUL  CLEAR     55  33  43 NW8G18    29.98R
LAKE ELMO      FAIR      52  36  54 NW9       29.99R
$$
MNZ001>005-007-008-013>017-022>024-027-028-251300-
   Northwest Minnesota

CITY           SKY/WX    TMP DP  RH WIND       PRES   REMARKS
BEMIDJI        FAIR      39  31  73 W10       29.96S
HALLOCK        CLEAR     37  30  75 W12       29.97R
ROSEAU         FAIR      41  32  70 W8        29.92S
WARROAD        FAIR      39  32  75 W10       29.91S
THIEF RVR FALL CLEAR     39  30  70 W10       29.99R
CROOKSTON      CLEAR     39  32  75 W9        30.02R
FOSSTON        CLEAR     36  30  80 W6        30.00S
DETROIT LAKES  PTCLDY    43  34  70 NW9       30.03R
MOORHEAD       MOCLDY    45  34  65 NW7       30.05S
PARK RAPIDS    CLEAR     38  31  76 W9        29.99R
MAHNOMEN       FAIR      37  31  81 W10       30.02R
$$
MNZ006-009>011-018-025>026-251300-
   North Central Minnesota

CITY           SKY/WX    TMP DP  RH WIND       PRES   REMARKS
BAUDETTE       CLEAR     42  31  64 VRB7      29.89R
FLAG ISLAND    CLEAR     45  32  61 W16       29.86R
INTL FALLS     CLEAR     42  33  70 W9        29.85R
6HR MIN TEMP:  42; 6HR MAX TEMP:  53;

WASKISH        CLEAR     45  36  70 W17       29.92S
BIG FORK       CLEAR     45  30  57 W6        29.91R
LONGVILLE      CLEAR     45  32  61 W8        29.96R
GRAND RAPIDS   CLEAR     46  28  49 NW15G21   29.92R
CRANE LAKE     CLEAR     45  34  65 W9G16     29.84S
ORR            CLEAR     43  30  61 W13G21    29.83S
COOK           CLEAR     45  34  65 W10       29.86R
WALKER         FAIR      42  31  64 W7        29.97R
$$
MNZ012-019>021-037-251300-
   Northeast Minnesota

CITY           SKY/WX    TMP DP  RH WIND       PRES   REMARKS
DULUTH         CLEAR     48  32  53 NW15G25   29.86R
6HR MIN TEMP:  47; 6HR MAX TEMP:  57;

ELY            CLEAR     45  32  61 W15G25    29.82R
HIBBING        CLEAR     47  31  53 NW12G22   29.88R
EVELETH        CLEAR     45  32  61 W14G20    29.88R
DULUTH HARBOR  CLEAR     52  37  58 W12G22    29.88R
TWO HARBORS    CLEAR     50  21  32 W9G16     29.81R
SILVER BAY     CLEAR     50  34  53 W13G21    29.78R
GRAND MARAIS     N/A     51  34  52 NW14G35   29.67R
G MARAIS ARPRT CLEAR     45  30  57 W14G32    29.71R
$$
MNZ029>031-032-039>041-046>048-054>057-064-251300-
   West Central Minnesota

CITY           SKY/WX    TMP DP  RH WIND       PRES   REMARKS
FERGUS FALLS   CLEAR     37  28  70 W5        30.07R
WHEATON        MOCLDY    48  34  57 W8        30.09R
MORRIS         MOCLDY    50  36  57 NW9       30.05R
ALEXANDRIA     CLEAR     44  33  65 W8        30.05R
ELBOW LAKE     FAIR      41  32  71 NW8       30.06R
WADENA         CLEAR     43  32  65 W6        30.02R
GLENWOOD       PTCLDY    43  34  70 W5        30.05R
APPLETON       CLOUDY    54  36  50 NW6       30.06R
BENSON         MOCLDY    50  37  62 N8        30.05R
ORTONVILLE     CLOUDY    54  36  50 W8        30.07R
MADISON        MOCLDY    54  37  54 NW7       30.06S
WILLMAR        FAIR      52  36  54 NW9       30.06R
$$
MNZ033>034-036-042>043-049>051-058-059-251300-
   Central Minnesota

CITY           SKY/WX    TMP DP  RH WIND       PRES   REMARKS
ST CLOUD       CLEAR     51  34  52 NW12      30.00R
6HR MIN TEMP:  51; 6HR MAX TEMP:  60;

SAUK CENTRE    FAIR      41  33  74 W6        30.03R
PAYNESVILLE    PTCLDY    43  33  69 W9        30.05R
AITKIN         CLEAR     46  34  61 CALM      29.94R
PINE RIVER     CLEAR     45  32  61 W5        30.01R
BRAINERD       CLEAR     46  33  60 NW8       29.98R
STAPLES        CLEAR     43  32  65 W9        30.00R
LONG PRAIRIE   FAIR      45  32  61 W8        30.02S
LITTLE FALLS   CLEAR     46  32  57 W7        30.00R
LITCHFIELD     PTCLDY    54  34  47 NW9       30.03S
BUFFALO        PTCLDY    49  36  61 W7        30.02R
MAPLE LAKE     PTCLDY    50  37  62 W8        30.02R
$$
MNZ037-044-045-052-053-251300-
   East Central Minnesota

CITY           SKY/WX    TMP DP  RH WIND       PRES   REMARKS
PRINCETON      CLEAR     46  36  66 W8        29.99R
MORA           CLEAR     45  32  61 W7        29.97R
CAMBRIDGE      CLEAR     52  36  54 W6        29.96R
RUSH CITY      CLEAR     45  35  68 W7        29.96R
MOOSE LAKE     CLEAR     46  32  57 W6        29.91R
HINCKLEY       FAIR      46  36  66 CALM      29.94R
CLOQUET        CLEAR     46  30  53 W10G17    29.89R
MCGREGOR       CLEAR     48  34  57 W8        29.95R
$$
MNZ071>073-080-081-089-090-097-098-251300-
   Southwest Minnesota

CITY           SKY/WX    TMP DP  RH WIND       PRES   REMARKS
MONTEVIDEO     CLOUDY    52  37  58 N6        30.06S
GRANITE FALLS  MOCLDY    49  39  70 W7        30.07R
CANBY          PTCLDY    51  36  56 W8        30.08R
MARSHALL       PTCLDY    48  34  57 W12       30.06S
REDWOOD FALLS  FAIR      50  38  63 W8        30.05R
OLIVIA         MOCLDY    50  37  62 NW6       30.04R
PIPESTONE      CLEAR     48  36  61 CALM      30.09R
WINDOM         PTCLDY    52  36  54 NW7       30.06S
WORTHINGTON    CLEAR     45  36  70 NW7       30.09R
JACKSON        CLEAR     50  34  53 NW7       30.07R
TRACY          PTCLDY    51  35  53 W5        30.08R
SLAYTON        CLEAR     45  34  66 NW8       30.09R
$$
MNZ065>067-074>077-082>085-091>093-251300-
   South Central Minnesota

CITY           SKY/WX    TMP DP  RH WIND       PRES   REMARKS
MANKATO        MOCLDY    52  36  54 NW9       30.03R
NEW ULM        MOCLDY    52  37  58 W7        30.04S
ST JAMES       PTCLDY    52  37  58 W7        30.06S
FAIRMONT       PTCLDY    52   0  11 NW8       30.05R
GLENCOE        MOCLDY    53  40  60 W9        30.01R
FARIBAULT      PTCLDY    50  39  66 W5        30.01R
OWATONNA       PTCLDY    45  37  76 CALM      30.01S
WASECA         PTCLDY    41  34  75 SW5       30.04R
ALBERT LEA     CLEAR     48  41  76 W5        30.03R
$$
MNZ078>079-086>088-094>096-251300-
   Southeast Minnesota

CITY           SKY/WX    TMP DP  RH WIND       PRES   REMARKS
ROCHESTER      CLEAR     46  40  79 W7        30.00R
6HR MIN TEMP:  45; 6HR MAX TEMP:  54;

RED WING       CLEAR     39  37  93 CALM      29.96S
STANTON        CLEAR     47  39  73 SW3       29.98S
DODGE CENTER   PTCLDY    50  39  66 NW9       30.00S
WINONA         CLEAR     48  45  87 NW3       29.96S
AUSTIN         CLEAR     48  39  71 NW8       30.01R
PRESTON        CLEAR     47  40  78 NW8       29.99S
$$
ABBREVIATIONS USED IN REMARKS
   TC - TEMPERATURES IN CELSIUS
  WCI - WIND CHILL INDEX
   HX - HEAT INDEX
  VSB - VISIBILITY
$$



USA.gov is the U.S. government's official web portal to all federal, state and local government web resources and services.